Weather History for Sanford, ME

Change the Weather History Date:

Saturday, May 17, 2014

  Actual Average Record
Temperature  
Mean Temperature 62 °F -  
Max Temperature 73 °F 63 °F 73 °F (2014)
Min Temperature 51 °F 40 °F 30 °F (1999)
Degree Days  
Heating Degree Days 3    
Growing Degree Days 12 (Base 50)    
Moisture  
Dew Point 50 °F    
Average Humidity 69    
Maximum Humidity 94    
Minimum Humidity 29    
Precipitation  
Precipitation 0.69 in - - ()
Sea Level Pressure  
Sea Level Pressure 29.93 in    
Wind  
Wind Speed 8 mph (SSW)    
Max Wind Speed 14 mph    
Max Gust Speed 22 mph    
Visibility 8 miles    
Events      
Averages and records for this station are not official NWS values.
T = Trace of Precipitation, MM = Missing Value Source: NWS Daily Summary

Daily Weather History Graph

Daily Weather History Graph

Search for Another Location

Airport:

Trip Planner

Search our weather history database for the weather conditions in past years. The results will help you decide how hot, cold, wet, or windy it might be!

Date:

Astronomy

May. 17, 2014 Rise Set
Actual Time 5:16 AM EDT 8:02 PM EDT
Civil Twilight 4:43 AM EDT 8:35 PM EDT
Nautical Twilight 4:01 AM EDT 9:17 PM EDT
Astronomical Twilight 3:13 AM EDT 10:06 PM EDT
Moon 10:59 PM EDT (5/17) 7:56 AM EDT (5/17)
Length of Visible Light 15h 52m
Length of Day
14h 46m
Waning Gibbous, 89% of the Moon is Illuminated
May 17
Waning Gibbous
May 21
Last Quarter
May 28
New
Jun 5
First Quarter
Jun 13
Full

Hourly Weather History & Observations

Time (EDT) Temp. Dew Point Humidity Pressure Visibility Wind Dir Wind Speed Gust Speed Precip Events Conditions
12:15 AM 57.2 °F 55.4 °F 94% 30.01 in 5.0 mi SSE 8.1 mph - N/A   Overcast
12:35 AM 57.2 °F 55.4 °F 94% 30.00 in 6.0 mi SSE 6.9 mph 16.1 mph N/A   Overcast
12:55 AM 57.2 °F 55.4 °F 94% 29.99 in 6.0 mi SSE 9.2 mph - N/A   Overcast
1:15 AM 57.2 °F 55.4 °F 94% 29.99 in 5.0 mi SSE 9.2 mph 17.3 mph N/A   Overcast
1:35 AM 57.2 °F 55.4 °F 94% 29.97 in 5.0 mi SSE 6.9 mph - N/A   Overcast
1:55 AM 57.2 °F 55.4 °F 94% 29.96 in 6.0 mi SSE 8.1 mph - N/A   Overcast
2:15 AM 57.2 °F 55.4 °F 94% 29.95 in 5.0 mi SSE 8.1 mph - N/A   Overcast
2:35 AM 57.2 °F 55.4 °F 94% 29.95 in 5.0 mi SSE 8.1 mph - N/A   Overcast
2:55 AM 57.2 °F 55.4 °F 94% 29.94 in 6.0 mi SSE 10.4 mph 17.3 mph N/A   Overcast
3:15 AM 57.2 °F 55.4 °F 94% 29.94 in 5.0 mi SSE 12.7 mph 18.4 mph N/A   Overcast
3:35 AM 57.2 °F 55.4 °F 94% 29.92 in 5.0 mi SSE 9.2 mph 17.3 mph N/A   Overcast
3:55 AM 57.2 °F 55.4 °F 94% 29.92 in 5.0 mi SSE 10.4 mph - N/A   Overcast
4:15 AM 57.2 °F 53.6 °F 88% 29.92 in 5.0 mi SSE 6.9 mph - N/A   Overcast
4:35 AM 57.2 °F 53.6 °F 88% 29.91 in 5.0 mi SSE 6.9 mph - N/A   Overcast
4:55 AM 57.2 °F 55.4 °F 94% 29.91 in 5.0 mi SSE 10.4 mph 18.4 mph N/A   Overcast
5:15 AM 57.2 °F 55.4 °F 94% 29.90 in 5.0 mi SSE 9.2 mph 16.1 mph N/A   Overcast
5:35 AM 57.2 °F 55.4 °F 94% 29.90 in 6.0 mi SSE 10.4 mph 18.4 mph N/A   Overcast
5:55 AM 59.0 °F 55.4 °F 88% 29.90 in 5.0 mi SSE 10.4 mph 21.9 mph N/A   Overcast
6:15 AM 57.2 °F 55.4 °F 94% 29.89 in 3.0 mi SSE 9.2 mph 18.4 mph N/A   Overcast
6:35 AM 57.2 °F 55.4 °F 94% 29.89 in 5.0 mi SSE 8.1 mph 17.3 mph 0.04 in   Overcast
6:55 AM 57.2 °F 55.4 °F 94% 29.89 in 5.0 mi SSE 11.5 mph 21.9 mph 0.15 in   Overcast
7:15 AM 57.2 °F 55.4 °F 94% 29.88 in 5.0 mi SSE 8.1 mph 16.1 mph 0.16 in   Overcast
7:35 AM 57.2 °F 55.4 °F 94% 29.89 in 5.0 mi South 10.4 mph 19.6 mph 0.35 in   Overcast
7:55 AM 57.2 °F 55.4 °F 94% 29.88 in 7.0 mi SSE 8.1 mph 16.1 mph 0.45 in   Overcast
8:15 AM 57.2 °F 55.4 °F 94% 29.89 in 10.0 mi South 10.4 mph - 0.06 in   Overcast
8:35 AM 59.0 °F 55.4 °F 88% 29.90 in 6.0 mi SSW 10.4 mph 18.4 mph 0.08 in   Overcast
8:55 AM 57.2 °F 55.4 °F 94% 29.90 in 3.0 mi South 9.2 mph - 0.08 in   Overcast
9:15 AM 57.2 °F 55.4 °F 94% 29.90 in 1.5 mi SSW 6.9 mph - N/A   Overcast
9:35 AM 59.0 °F 55.4 °F 88% 29.89 in 3.0 mi South 8.1 mph - 0.01 in   Overcast
9:55 AM 59.0 °F 55.4 °F 88% 29.89 in 4.0 mi SSE 3.5 mph - 0.01 in   Overcast
10:15 AM 59.0 °F 57.2 °F 94% 29.90 in 5.0 mi SE 5.8 mph - N/A   Overcast
10:35 AM 59.0 °F 57.2 °F 94% 29.90 in 6.0 mi South 4.6 mph - N/A   Overcast
10:55 AM 59.0 °F 57.2 °F 94% 29.90 in 8.0 mi SSE 3.5 mph - N/A   Overcast
11:15 AM 60.8 °F 57.2 °F 88% 29.90 in 10.0 mi South 4.6 mph - N/A   Overcast
11:35 AM 62.6 °F 57.2 °F 82% 29.90 in 10.0 mi SW 8.1 mph - N/A   Mostly Cloudy
11:55 AM 66.2 °F 59.0 °F 78% 29.90 in 10.0 mi SW 6.9 mph - N/A   Mostly Cloudy
12:15 PM 66.2 °F 57.2 °F 73% 29.91 in 10.0 mi West 6.9 mph - N/A   Overcast
12:35 PM 68.0 °F 57.2 °F 68% 29.90 in 10.0 mi WSW 8.1 mph - N/A   Mostly Cloudy
12:55 PM 69.8 °F 57.2 °F 64% 29.91 in 10.0 mi SW 9.2 mph - N/A   Scattered Clouds
1:15 PM 69.8 °F 55.4 °F 60% 29.90 in 10.0 mi SSW 8.1 mph - N/A   Scattered Clouds
1:35 PM 71.6 °F 53.6 °F 53% 29.90 in 10.0 mi SSW 6.9 mph 18.4 mph N/A   Mostly Cloudy
1:55 PM 71.6 °F 51.8 °F 50% 29.90 in 10.0 mi West 9.2 mph - N/A   Partly Cloudy
2:15 PM 73.4 °F 46.4 °F 38% 29.90 in 10.0 mi SW 13.8 mph 19.6 mph N/A   Clear
2:35 PM 73.4 °F 48.2 °F 41% 29.90 in 10.0 mi WSW 9.2 mph - N/A   Clear
2:55 PM 73.4 °F 46.4 °F 38% 29.90 in 10.0 mi WSW 12.7 mph - N/A   Clear
3:15 PM 71.6 °F 46.4 °F 41% 29.91 in 10.0 mi WSW 6.9 mph - N/A   Clear
3:35 PM 73.4 °F 46.4 °F 38% 29.91 in 10.0 mi SSW 4.6 mph - N/A   Clear
3:55 PM 73.4 °F 46.4 °F 38% 29.90 in 10.0 mi SW 8.1 mph - N/A   Partly Cloudy
4:15 PM 73.4 °F 46.4 °F 38% 29.91 in 10.0 mi WSW 12.7 mph 17.3 mph N/A   Partly Cloudy
4:35 PM 73.4 °F 46.4 °F 38% 29.91 in 10.0 mi SW 10.4 mph 16.1 mph N/A   Scattered Clouds
4:55 PM 73.4 °F 46.4 °F 38% 29.91 in 10.0 mi SSW 6.9 mph - N/A   Partly Cloudy
5:15 PM 73.4 °F 39.2 °F 29% 29.91 in 10.0 mi SW 12.7 mph 21.9 mph N/A   Clear
5:35 PM 73.4 °F 39.2 °F 29% 29.91 in 10.0 mi SW 10.4 mph 17.3 mph N/A   Clear
5:55 PM 73.4 °F 39.2 °F 29% 29.92 in 10.0 mi SW 9.2 mph 16.1 mph N/A   Clear
6:15 PM 71.6 °F 39.2 °F 31% 29.92 in 10.0 mi SSW 11.5 mph 16.1 mph N/A   Clear
6:35 PM 71.6 °F 39.2 °F 31% 29.94 in 10.0 mi WSW 11.5 mph - N/A   Clear
6:55 PM 69.8 °F 39.2 °F 33% 29.94 in 10.0 mi SW 10.4 mph - N/A   Clear
7:15 PM 69.8 °F 39.2 °F 33% 29.95 in 10.0 mi WSW 8.1 mph - N/A   Clear
7:35 PM 66.2 °F 41.0 °F 40% 29.96 in 10.0 mi WSW 8.1 mph - N/A   Clear
7:55 PM 64.4 °F 41.0 °F 42% 29.97 in 10.0 mi SW 5.8 mph - N/A   Clear
8:15 PM 62.6 °F 39.2 °F 42% 29.98 in 10.0 mi West 5.8 mph - N/A   Clear
8:35 PM 60.8 °F 41.0 °F 48% 29.99 in 10.0 mi WSW 5.8 mph - N/A   Clear
8:55 PM 57.2 °F 39.2 °F 51% 30.00 in 10.0 mi West 4.6 mph - N/A   Clear
9:15 PM 55.4 °F 42.8 °F 63% 30.00 in 10.0 mi West 4.6 mph - N/A   Clear
9:35 PM 51.8 °F 42.8 °F 71% 30.01 in 10.0 mi WSW 5.8 mph - N/A   Clear
9:55 PM 51.8 °F 41.0 °F 67% 30.02 in 10.0 mi West 5.8 mph - N/A   Clear
10:15 PM 57.2 °F 39.2 °F 51% 30.02 in 10.0 mi West 9.2 mph - N/A   Clear
10:35 PM 57.2 °F 39.2 °F 51% 30.03 in 10.0 mi WNW 6.9 mph - N/A   Clear
10:55 PM 55.4 °F 39.2 °F 54% 30.03 in 10.0 mi WNW 5.8 mph - N/A   Clear
11:15 PM 55.4 °F 37.4 °F 51% 30.03 in 10.0 mi West 6.9 mph - N/A   Clear
11:35 PM 55.4 °F 37.4 °F 51% 30.03 in 10.0 mi West 9.2 mph - N/A   Clear
11:55 PM 53.6 °F 37.4 °F 54% 30.03 in 10.0 mi West 6.9 mph - N/A   Clear